SCP
0 0 0 0 0 0 0 0 0 0 0 0 0 0 0 0 0 0 0 0 0 0 0 0 0 0 0 0 0 0 0 0 0 0 0 0 0 0 0 0 0 0 0 0 0 0 0 0 0
0 0 0 0 0 0 0 0 0 0 0 0 0 0 0 0 0 0 0 0 0 0 0 0 0 0 0 0 0 0 0 0 0 0 0 0 0 0 0 0 0 0 0 0 0 0 0 0 0
0 0 0 0 0 0 0 0 0 0 0 0 0 0 0 0 0 0 0 0 0 0 0 0 0 0 0 0 0 0 0 0 0 0 0 0 0 0 0 0 0 0 0 0 0 0 0 0 0
0 0 0 0 0 0 0 0 0 0 0 0 0 0 0 0 0 0 0 0 0 0 0 0 0 0 0 0 0 0 0 0 0 0 0 0 0 0 0 0 0 0 0 0 0 0 0 0 0
0 0 0 0 0 0 0 0 0 0 0 0 0 0 0 0 0 0 0 0 0 0 0 0 0 0 0 0 0 0 0 0 0 0 0 0 0 0 0 0 0 0 0 0 0 0 0 0 0
0 0 0 0 0 0 0 0 0 0 0 0 0 0 0 0 0 0 0 0 0 0 0 0 0 0 0 0 0 0 0 0 0 0 0 0 0 0 0 0 0 0 0 0 0 0 0 0 0
0 0 0 0 0 0 0 0 0 0 0 0 0 0 0 0 0 0 0 0 0 0 0 0 0 0 0 0 0 0 0 0 0 0 0 0 0 0 0 0 0 0 0 0 0 0 0 0 0
0 0 0 0 0 0 0 0 0 0 0 0 0 0 0 0 0 0 0 0 0 0 0 -0 0 0 0 0 0 0 0 0 0 0 0 0 0 0 0 0 0 0 0 0 0 0 0 0 0
0 0 0 0 0 0 0 0 0 0 0 0 0 0 0 0 0 0 0 0 0 0 0 0 -0 0 0 0 0 0 0 0 0 0 0 0 0 0 0 0 0 0 0 0 0 0 0 0 0
0 0 0 0 0 0 0 0 0 0 0 0 0 0 0 0 0 0 0 0 0 0 0 0 0 0 0 0 0 0 0 0 0 0 0 0 0 0 0 0 0 0 0 0 0 0 0 0 0
0 0 0 0 0 0 0 0 0 0 0 0 0 0 0 0 0 0 0 0 0 0 0 0 0 0 0 0 0 0 0 0 1 1 1 0 0 0 0 0 0 0 0 0 0 0 0 0 0
0 0 0 0 0 0 0 0 0 0 0 0 0 0 0 0 0 0 0 0 0 0 0 0 0 0 0 0 0 0 0 0 0 0 1 1 0 1 0 0 0 0 0 0 0 0 0 0 0
0 0 0 0 0 0 0 0 0 0 0 0 0 0 0 0 0 0 0 -0 0 0 0 0 0 0 0 0 0 0 0 0 0 0 0 1 1 0 1 0 0 0 0 0 0 0 0 0 0
0 0 0 0 0 0 0 0 0 0 0 0 0 0 0 0 0 0 0 -0 0 0 0 -0 0 0 0 0 0 0 0 0 0 0 0 0 0 0 1 1 0 0 0 0 0 0 0 0 0
0 0 0 0 0 0 0 0 0 -0 0 0 0 0 0 0 0 0 0 0 0 0 0 0 -0 -0 0 0 0 0 0 0 0 0 0 0 0 0 0 0 1 0 0 0 0 0 0 0 0
0 0 0 0 0 0 0 0 0 0 0 0 0 0 0 0 0 0 0 0 0 0 0 0 0 0 0 0 0 0 0 0 0 0 0 0 0 0 0 0 0 0 0 0 0 0 0 0 0
0 0 0 0 0 0 0 0 0 0 0 0 0 0 0 0 0 0 0 0 0 0 0 0 0 0 0 0 0 0 0 0 0 0 0 0 0 0 0 0 0 0 0 0 0 0 0 0 0
0 0 0 0 0 0 0 0 0 0 0 0 0 0 0 0 0 0 0 0 0 0 0 0 0 0 0 0 0 0 0 0 0 0 0 0 0 0 0 0 0 0 0 0 0 0 0 0 0
0 0 0 0 0 0 0 0 0 0 0 0 0 0 0 0 0 0 0 0 0 0 0 0 0 0 0 0 0 0 0 0 0 0 0 0 0 0 0 0 0 0 0 0 0 0 0 0 0
0 0 0 0 0 0 0 0 0 0 0 0 0 0 0 0 0 0 0 0 0 0 0 0 0 0 0 0 0 0 0 0 0 0 0 0 0 0 0 0 0 0 0 0 0 0 0 0 0
0 0 0 0 0 0 0 0 0 0 0 0 0 0 0 0 0 0 0 0 0 0 0 0 0 0 0 0 0 0 0 0 0 0 0 0 0 0 0 0 1 1 0 0 0 0 0 0 0
0 0 0 0 0 0 0 0 0 0 0 0 0 0 0 0 0 0 0 0 0 0 0 0 0 0 0 0 0 0 0 0 0 0 0 0 0 0 0 0 0 1 0 0 0 0 0 0 0
0 0 0 0 0 0 0 0 0 0 0 0 0 0 0 0 0 0 0 0 0 0 0 0 0 0 0 0 0 0 0 0 0 0 0 0 0 0 0 0 0 0 0 0 0 0 0 0 0
0 0 0 0 0 0 0 0 0 0 0 0 0 0 0 0 0 0 0 0 0 0 0 0 0 0 0 0 0 0 0 0 0 0 0 0 0 0 0 0 0 0 0 0 0 0 0 0 0
0 0 0 0 0 0 0 0 0 0 0 0 0 0 0 0 0 0 0 0 0 0 0 0 0 0 0 0 0 0 0 0 0 0 0 0 0 0 0 0 0 0 0 0 0 0 0 0 0
0 0 0 0 0 0 0 0 0 0 0 0 0 0 0 0 0 0 0 0 0 0 0 0 0 0 0 0 0 0 0 0 0 0 0 0 0 0 0 0 0 0 0 0 0 0 0 0 0
0 0 0 0 0 0 0 0 0 0 0 0 0 0 0 0 0 0 0 0 0 0 0 0 0 0 0 0 0 0 0 0 0 0 0 0 0 0 0 0 -0 0 0 0 0 0 0 0 0
0 0 0 0 0 0 0 0 0 0 0 0 0 0 0 0 0 0 0 0 0 -0 -0 0 0 0 0 0 0 0 0 0 0 0 0 0 0 0 0 0 0 0 0 0 0 0 0 0 0
0 0 0 0 0 0 0 0 0 0 0 0 0 0 0 0 0 0 0 0 -0 0 -0 -0 -0 0 0 0 0 0 0 0 0 0 0 0 0 0 0 0 0 0 0 0 0 0 0 0 0
0 0 0 0 0 0 0 0 0 0 0 0 0 0 0 0 0 0 0 0 -0 0 -0 -0 -0 -0 0 0 0 0 0 0 0 0 0 0 0 0 0 0 0 0 0 0 0 0 0 0 0
Wind_Speed_500mb
9 17 16 4 5 6 10 13 9 4 6 22 14 14 14 29 11 5 6 14 28 17 11 10 11 23 27 30 30 29 28 28 28 29 26 22 21 24 26 29 27 22 17 8 8 14 18 18 18
8 20 12 9 5 10 11 23 11 15 16 21 12 13 12 6 23 12 8 22 30 19 9 3 14 21 29 34 33 35 31 31 30 32 30 26 25 25 27 31 29 25 18 11 14 18 21 21 25
16 13 7 7 8 9 10 15 19 16 21 20 16 11 12 10 14 11 12 16 20 15 11 12 13 20 27 32 37 35 35 35 35 35 33 32 31 28 28 32 31 27 20 16 20 21 25 22 31
8 5 12 7 20 18 14 19 21 13 11 9 15 14 8 6 3 9 13 20 21 26 12 14 17 22 27 32 36 39 39 39 38 38 37 37 35 30 33 36 34 28 23 22 24 25 25 26 34
8 11 7 10 21 21 11 33 22 9 16 3 14 12 18 3 7 11 19 23 27 27 24 15 23 24 30 39 37 39 42 43 41 41 39 40 37 32 34 38 38 34 29 27 26 30 33 33 34
10 9 7 14 21 20 19 33 17 12 20 25 12 17 11 3 3 24 32 34 33 34 33 23 25 30 31 37 44 41 41 44 46 46 44 43 41 37 37 39 41 40 36 33 35 33 32 32 35
6 5 10 18 20 16 12 30 27 16 19 10 12 9 11 12 16 33 42 44 44 33 42 39 29 31 39 29 43 47 46 45 47 49 48 47 45 42 43 41 44 44 40 37 37 35 32 31 34
9 5 9 8 7 3 10 15 17 20 13 19 9 9 10 41 53 42 43 44 31 34 37 36 37 33 38 40 40 48 54 50 52 52 52 52 50 46 48 47 46 46 43 43 39 36 35 37 35
4 4 8 13 13 8 28 20 21 18 25 34 29 35 42 38 36 47 47 38 36 32 29 34 46 35 37 44 43 46 51 56 57 57 59 57 56 55 52 52 52 50 47 48 45 36 36 39 35
6 4 14 10 16 14 26 22 26 18 36 42 40 23 21 40 44 42 37 37 39 41 40 39 41 47 38 39 46 48 49 46 65 65 62 61 63 64 61 57 54 54 54 54 47 39 35 40 37
12 5 12 14 18 18 20 31 29 26 16 36 40 43 44 43 34 31 36 37 40 44 47 44 43 44 50 40 43 46 51 50 43 58 69 68 68 68 67 65 64 63 63 63 54 48 45 42 40
7 6 8 13 18 12 18 29 28 48 50 44 37 41 37 30 31 35 36 43 49 50 44 41 40 41 43 51 41 46 46 50 50 53 58 75 77 76 76 73 72 75 73 72 64 62 57 51 44
5 14 16 19 20 25 23 30 26 53 47 34 25 24 29 31 35 42 44 43 46 49 56 58 53 45 44 46 51 42 51 47 51 56 64 61 80 88 86 81 81 81 80 80 75 70 66 60 54
12 19 32 14 10 16 18 40 21 19 20 31 23 30 39 45 41 41 44 47 51 56 59 60 60 56 46 48 52 53 50 55 52 52 59 76 78 80 93 89 87 85 84 83 81 77 75 67 58
12 10 21 16 9 6 12 18 14 19 15 19 29 38 35 26 31 35 38 47 54 60 68 70 65 57 57 47 43 48 54 57 62 60 57 69 67 64 72 88 100 96 90 87 83 79 73 65 65
7 1 11 3 13 10 5 18 24 18 24 36 36 27 16 22 27 35 42 53 64 72 76 78 71 65 60 60 58 59 58 57 64 66 66 65 71 62 61 66 76 104 104 93 86 81 74 70 66
9 6 13 13 14 8 4 23 19 51 42 26 20 9 16 24 31 41 52 58 63 66 73 73 70 63 60 59 58 60 58 54 58 67 67 73 65 63 61 61 85 69 92 105 91 86 80 78 72
9 9 9 20 14 28 21 35 35 41 14 10 7 8 17 31 43 55 65 79 79 71 62 59 60 59 56 56 57 59 60 58 62 66 67 68 71 62 54 56 43 62 71 70 95 87 84 84 76
11 16 20 26 23 16 19 39 41 16 9 9 8 17 29 41 55 64 66 69 71 61 61 59 58 55 51 51 53 53 52 55 58 62 62 63 68 64 55 52 52 42 62 105 77 88 88 87 81
14 18 15 21 22 26 26 37 35 20 13 6 8 21 38 55 62 61 60 59 62 69 63 61 63 65 66 57 44 52 52 46 49 57 57 54 58 61 53 44 45 42 55 61 64 64 81 86 84
13 10 10 22 30 16 14 16 11 10 13 12 12 30 48 58 65 63 59 58 59 67 66 58 59 63 60 58 54 48 56 58 54 46 47 52 50 53 60 60 57 55 35 49 70 88 87 65 70
7 16 23 25 9 7 12 9 13 18 14 14 15 41 56 58 59 58 58 57 58 58 59 60 64 59 55 53 53 49 56 50 61 52 52 51 39 46 47 46 55 65 69 56 60 72 83 82 73
16 23 31 14 3 9 3 2 7 14 7 11 24 52 54 57 60 64 61 63 63 61 60 55 62 54 47 42 50 50 55 56 41 43 41 42 43 50 43 48 48 56 57 77 62 77 94 102 88
17 13 20 5 5 5 4 7 10 5 4 16 33 49 54 64 63 63 63 67 69 64 60 59 54 50 36 35 29 35 53 40 44 47 45 37 40 43 37 38 45 49 44 47 57 63 95 82 96
15 12 8 9 3 9 9 6 17 7 7 17 35 55 58 65 64 67 66 65 65 61 59 53 50 45 32 30 15 27 31 32 37 35 34 40 41 40 39 38 37 47 51 52 51 49 55 83 95
6 4 5 8 8 14 11 11 11 12 17 29 35 44 55 60 62 65 63 64 58 54 51 52 45 41 32 22 17 12 25 30 34 30 30 29 32 33 34 45 55 28 43 40 54 74 62 72 78
3 1 4 3 5 3 9 14 7 6 9 26 38 40 50 56 61 63 63 62 53 48 47 46 39 35 30 17 23 12 28 22 23 37 31 25 33 38 32 36 52 59 44 45 47 57 72 74 67
4 2 5 1 9 11 11 14 11 10 13 16 20 33 48 57 63 66 64 60 53 46 45 41 33 33 31 24 19 24 25 31 30 30 30 31 28 31 36 36 50 51 56 35 53 56 52 63 73
3 3 4 2 3 6 9 12 12 13 8 15 18 38 54 61 64 67 64 57 53 49 43 41 34 30 30 27 24 24 25 25 33 33 29 28 30 30 36 28 40 46 42 29 48 58 58 65 68
2 6 7 7 10 8 5 18 10 15 12 11 20 46 56 61 63 64 64 59 56 52 45 43 35 26 20 19 21 22 23 23 22 24 30 26 22 26 32 26 13 34 40 30 29 39 69 54 69
Wind_Direction_500mb
165 134 134 195 239 228 270 246 244 106 28 20 9 334 344 323 347 105 227 346 344 359 328 344 258 223 223 217 214 218 218 222 225 220 223 220 207 193 186 182 183 183 178 194 187 155 146 155 154
159 118 129 248 251 237 254 246 182 49 36 1 330 272 270 86 59 87 163 343 356 356 327 272 227 222 226 223 218 223 222 223 226 226 224 222 214 204 198 195 193 186 184 198 186 160 156 163 154
140 130 241 196 206 224 269 61 56 28 32 19 332 8 358 43 41 75 11 358 357 2 312 265 243 220 236 232 226 226 225 226 226 228 227 226 217 212 210 205 202 198 199 209 206 184 184 176 175
113 249 271 262 244 258 280 87 75 6 107 72 12 295 67 77 86 47 342 353 350 354 326 258 260 230 221 241 242 228 228 228 227 228 230 226 219 219 213 209 210 210 207 211 213 200 197 194 196
139 252 249 233 254 273 334 68 46 9 323 17 46 303 353 128 105 323 319 340 346 352 338 292 249 242 243 232 240 242 236 228 225 226 227 224 224 224 219 213 215 218 221 220 231 225 223 215 223
247 287 249 239 251 256 67 35 14 354 353 347 354 353 305 135 350 324 319 331 333 339 323 319 280 260 254 241 236 239 241 236 227 228 226 224 226 226 221 222 219 223 221 235 232 225 221 225 229
273 215 262 282 286 315 52 3 35 12 332 1 356 305 258 101 348 322 316 321 324 319 313 310 301 285 270 265 241 238 235 238 234 231 232 231 228 226 224 225 224 226 228 225 211 221 227 232 236
337 324 287 256 290 43 58 16 35 353 320 332 297 256 296 312 324 335 315 318 332 320 317 309 296 289 286 270 255 242 241 237 236 235 233 236 234 231 229 227 226 230 227 216 212 221 233 227 236
6 291 268 346 23 8 17 2 334 326 289 288 273 274 286 309 312 318 326 327 317 324 316 310 303 288 282 281 271 254 246 239 240 237 235 232 232 232 230 228 227 226 222 215 218 229 228 227 232
343 279 31 1 6 348 339 326 321 316 302 292 297 310 310 314 326 330 330 329 325 324 316 310 302 303 284 278 280 270 255 243 241 242 236 234 234 233 230 227 225 224 216 216 221 227 224 223 230
4 329 11 16 15 348 318 309 317 313 274 287 325 319 317 316 325 323 326 325 318 307 305 309 314 313 303 282 275 274 270 256 241 244 243 238 234 233 232 230 226 218 214 211 218 220 219 224 222
331 52 346 326 330 324 309 303 292 279 273 285 301 306 308 313 317 321 327 318 323 319 309 305 299 294 299 296 277 271 268 264 255 246 238 242 236 234 228 228 222 216 213 212 216 216 218 223 221
289 5 316 298 284 295 293 285 283 288 290 285 301 313 314 311 312 318 327 326 316 313 305 300 293 287 288 285 285 271 265 261 255 253 242 238 240 238 232 226 221 218 216 215 215 218 219 221 219
330 299 284 267 264 286 309 300 312 268 285 298 298 308 310 309 311 327 329 323 321 318 319 317 310 294 281 285 281 277 266 259 257 250 250 244 238 239 242 229 224 223 222 219 219 220 219 221 222
297 298 286 204 186 279 347 285 191 258 285 267 282 291 309 305 317 324 319 314 310 313 314 315 309 304 285 266 268 271 268 263 256 253 247 246 247 245 247 228 228 227 225 224 219 220 222 220 220
278 159 355 143 192 166 110 279 299 318 308 289 296 307 309 311 310 310 310 309 310 308 307 303 301 297 293 281 263 261 264 262 260 256 251 248 249 255 255 257 240 220 229 222 218 214 217 221 219
60 268 297 316 223 243 207 274 263 295 289 311 308 321 312 300 304 310 312 312 307 301 300 297 295 293 292 287 277 265 257 259 260 259 254 251 252 255 259 259 241 244 238 218 213 210 215 218 222
306 309 315 303 305 300 290 271 280 303 327 318 27 288 299 313 313 315 314 308 305 309 309 303 294 289 287 283 279 267 259 252 257 259 257 255 253 253 257 257 260 244 245 208 203 208 209 219 224
298 292 288 287 306 309 278 291 288 267 161 191 231 326 319 315 318 314 310 308 306 312 309 308 305 299 294 287 286 276 268 263 253 261 261 257 253 249 251 257 253 255 233 228 215 206 208 215 221
293 285 283 283 323 322 293 291 279 260 190 171 314 302 323 323 319 319 316 313 309 308 308 299 293 287 274 270 261 275 267 252 263 253 264 262 258 250 244 248 251 247 231 229 211 217 205 208 214
288 260 322 302 333 274 297 283 158 155 162 210 256 317 324 325 326 322 320 318 316 313 314 312 303 301 296 290 272 260 260 244 241 240 244 254 264 257 246 245 239 238 252 242 237 229 228 216 199
287 1 325 315 29 304 49 281 308 135 191 187 320 327 325 328 325 322 322 321 321 317 315 310 304 303 295 291 282 260 262 244 243 242 245 254 257 257 246 242 242 237 242 246 252 222 213 228 197
248 321 291 290 91 345 182 77 257 149 210 348 335 328 326 333 331 329 326 324 321 319 315 315 308 308 296 286 278 254 256 235 240 244 242 250 247 252 250 250 241 236 239 244 248 242 226 219 218
317 304 306 98 155 257 192 79 265 225 296 326 335 327 335 336 333 326 326 326 323 325 323 318 316 313 303 298 283 262 243 225 242 237 236 246 253 250 247 246 243 232 225 227 237 233 227 214 228
20 359 334 347 253 242 218 306 251 151 32 2 333 330 338 334 332 329 329 330 326 323 322 321 319 317 317 304 287 258 235 229 230 233 244 237 245 252 254 243 255 232 234 224 222 226 216 213 217
38 65 127 279 309 298 227 237 261 141 38 355 329 330 332 331 333 329 328 328 328 328 326 324 323 319 325 306 316 201 212 216 222 229 235 247 253 256 257 249 237 249 219 223 218 218 217 217 214
129 256 29 268 237 308 239 275 63 91 349 348 338 337 331 334 332 332 333 332 332 327 326 330 328 326 329 317 302 273 204 201 219 222 222 235 248 259 258 264 249 243 268 217 217 214 220 223 227
145 114 14 265 306 296 290 287 245 306 318 316 320 332 335 336 337 339 339 338 337 333 330 336 338 339 339 329 297 279 262 244 242 244 245 246 256 262 253 273 250 243 252 232 219 218 226 223 220
141 232 248 131 204 274 304 264 200 199 234 274 299 343 342 345 344 346 346 346 343 339 342 338 341 345 346 335 307 278 266 264 256 252 257 258 252 256 255 267 240 240 244 237 203 219 228 230 237
97 233 163 138 270 237 253 269 165 183 211 247 349 360 348 354 352 353 354 353 351 349 350 346 346 344 337 335 320 300 277 268 262 255 251 252 261 245 251 261 269 234 235 230 207 219 226 234 236
Wind_Speed_850mb
9 17 16 4 5 6 10 13 9 4 6 22 14 14 14 29 11 5 6 14 28 17 11 10 11 23 27 30 30 29 28 28 28 29 26 22 21 24 26 29 27 22 17 8 8 14 18 18 18
8 20 12 9 5 10 11 23 11 15 16 21 12 13 12 6 23 12 8 22 30 19 9 3 14 21 29 34 33 35 31 31 30 32 30 26 25 25 27 31 29 25 18 11 14 18 21 21 25
16 13 7 7 8 9 10 15 19 16 21 20 16 11 12 10 14 11 12 16 20 15 11 12 13 20 27 32 37 35 35 35 35 35 33 32 31 28 28 32 31 27 20 16 20 21 25 22 31
8 5 12 7 20 18 14 19 21 13 11 9 15 14 8 6 3 9 13 20 21 26 12 14 17 22 27 32 36 39 39 39 38 38 37 37 35 30 33 36 34 28 23 22 24 25 25 26 34
8 11 7 10 21 21 11 33 22 9 16 3 14 12 18 3 7 11 19 23 27 27 24 15 23 24 30 39 37 39 42 43 41 41 39 40 37 32 34 38 38 34 29 27 26 30 33 33 34
10 9 7 14 21 20 19 33 17 12 20 25 12 17 11 3 3 24 32 34 33 34 33 23 25 30 31 37 44 41 41 44 46 46 44 43 41 37 37 39 41 40 36 33 35 33 32 32 35
6 5 10 18 20 16 12 30 27 16 19 10 12 9 11 12 16 33 42 44 44 33 42 39 29 31 39 29 43 47 46 45 47 49 48 47 45 42 43 41 44 44 40 37 37 35 32 31 34
9 5 9 8 7 3 10 15 17 20 13 19 9 9 10 41 53 42 43 44 31 34 37 36 37 33 38 40 40 48 54 50 52 52 52 52 50 46 48 47 46 46 43 43 39 36 35 37 35
4 4 8 13 13 8 28 20 21 18 25 34 29 35 42 38 36 47 47 38 36 32 29 34 46 35 37 44 43 46 51 56 57 57 59 57 56 55 52 52 52 50 47 48 45 36 36 39 35
6 4 14 10 16 14 26 22 26 18 36 42 40 23 21 40 44 42 37 37 39 41 40 39 41 47 38 39 46 48 49 46 65 65 62 61 63 64 61 57 54 54 54 54 47 39 35 40 37
12 5 12 14 18 18 20 31 29 26 16 36 40 43 44 43 34 31 36 37 40 44 47 44 43 44 50 40 43 46 51 50 43 58 69 68 68 68 67 65 64 63 63 63 54 48 45 42 40
7 6 8 13 18 12 18 29 28 48 50 44 37 41 37 30 31 35 36 43 49 50 44 41 40 41 43 51 41 46 46 50 50 53 58 75 77 76 76 73 72 75 73 72 64 62 57 51 44
5 14 16 19 20 25 23 30 26 53 47 34 25 24 29 31 35 42 44 43 46 49 56 58 53 45 44 46 51 42 51 47 51 56 64 61 80 88 86 81 81 81 80 80 75 70 66 60 54
12 19 32 14 10 16 18 40 21 19 20 31 23 30 39 45 41 41 44 47 51 56 59 60 60 56 46 48 52 53 50 55 52 52 59 76 78 80 93 89 87 85 84 83 81 77 75 67 58
12 10 21 16 9 6 12 18 14 19 15 19 29 38 35 26 31 35 38 47 54 60 68 70 65 57 57 47 43 48 54 57 62 60 57 69 67 64 72 88 100 96 90 87 83 79 73 65 65
7 1 11 3 13 10 5 18 24 18 24 36 36 27 16 22 27 35 42 53 64 72 76 78 71 65 60 60 58 59 58 57 64 66 66 65 71 62 61 66 76 104 104 93 86 81 74 70 66
9 6 13 13 14 8 4 23 19 51 42 26 20 9 16 24 31 41 52 58 63 66 73 73 70 63 60 59 58 60 58 54 58 67 67 73 65 63 61 61 85 69 92 105 91 86 80 78 72
9 9 9 20 14 28 21 35 35 41 14 10 7 8 17 31 43 55 65 79 79 71 62 59 60 59 56 56 57 59 60 58 62 66 67 68 71 62 54 56 43 62 71 70 95 87 84 84 76
11 16 20 26 23 16 19 39 41 16 9 9 8 17 29 41 55 64 66 69 71 61 61 59 58 55 51 51 53 53 52 55 58 62 62 63 68 64 55 52 52 42 62 105 77 88 88 87 81
14 18 15 21 22 26 26 37 35 20 13 6 8 21 38 55 62 61 60 59 62 69 63 61 63 65 66 57 44 52 52 46 49 57 57 54 58 61 53 44 45 42 55 61 64 64 81 86 84
13 10 10 22 30 16 14 16 11 10 13 12 12 30 48 58 65 63 59 58 59 67 66 58 59 63 60 58 54 48 56 58 54 46 47 52 50 53 60 60 57 55 35 49 70 88 87 65 70
7 16 23 25 9 7 12 9 13 18 14 14 15 41 56 58 59 58 58 57 58 58 59 60 64 59 55 53 53 49 56 50 61 52 52 51 39 46 47 46 55 65 69 56 60 72 83 82 73
16 23 31 14 3 9 3 2 7 14 7 11 24 52 54 57 60 64 61 63 63 61 60 55 62 54 47 42 50 50 55 56 41 43 41 42 43 50 43 48 48 56 57 77 62 77 94 102 88
17 13 20 5 5 5 4 7 10 5 4 16 33 49 54 64 63 63 63 67 69 64 60 59 54 50 36 35 29 35 53 40 44 47 45 37 40 43 37 38 45 49 44 47 57 63 95 82 96
15 12 8 9 3 9 9 6 17 7 7 17 35 55 58 65 64 67 66 65 65 61 59 53 50 45 32 30 15 27 31 32 37 35 34 40 41 40 39 38 37 47 51 52 51 49 55 83 95
6 4 5 8 8 14 11 11 11 12 17 29 35 44 55 60 62 65 63 64 58 54 51 52 45 41 32 22 17 12 25 30 34 30 30 29 32 33 34 45 55 28 43 40 54 74 62 72 78
3 1 4 3 5 3 9 14 7 6 9 26 38 40 50 56 61 63 63 62 53 48 47 46 39 35 30 17 23 12 28 22 23 37 31 25 33 38 32 36 52 59 44 45 47 57 72 74 67
4 2 5 1 9 11 11 14 11 10 13 16 20 33 48 57 63 66 64 60 53 46 45 41 33 33 31 24 19 24 25 31 30 30 30 31 28 31 36 36 50 51 56 35 53 56 52 63 73
3 3 4 2 3 6 9 12 12 13 8 15 18 38 54 61 64 67 64 57 53 49 43 41 34 30 30 27 24 24 25 25 33 33 29 28 30 30 36 28 40 46 42 29 48 58 58 65 68
2 6 7 7 10 8 5 18 10 15 12 11 20 46 56 61 63 64 64 59 56 52 45 43 35 26 20 19 21 22 23 23 22 24 30 26 22 26 32 26 13 34 40 30 29 39 69 54 69
Wind_Direction_850mb
165 134 134 195 239 228 270 246 244 106 28 20 9 334 344 323 347 105 227 346 344 359 328 344 258 223 223 217 214 218 218 222 225 220 223 220 207 193 186 182 183 183 178 194 187 155 146 155 154
159 118 129 248 251 237 254 246 182 49 36 1 330 272 270 86 59 87 163 343 356 356 327 272 227 222 226 223 218 223 222 223 226 226 224 222 214 204 198 195 193 186 184 198 186 160 156 163 154
140 130 241 196 206 224 269 61 56 28 32 19 332 8 358 43 41 75 11 358 357 2 312 265 243 220 236 232 226 226 225 226 226 228 227 226 217 212 210 205 202 198 199 209 206 184 184 176 175
113 249 271 262 244 258 280 87 75 6 107 72 12 295 67 77 86 47 342 353 350 354 326 258 260 230 221 241 242 228 228 228 227 228 230 226 219 219 213 209 210 210 207 211 213 200 197 194 196
139 252 249 233 254 273 334 68 46 9 323 17 46 303 353 128 105 323 319 340 346 352 338 292 249 242 243 232 240 242 236 228 225 226 227 224 224 224 219 213 215 218 221 220 231 225 223 215 223
247 287 249 239 251 256 67 35 14 354 353 347 354 353 305 135 350 324 319 331 333 339 323 319 280 260 254 241 236 239 241 236 227 228 226 224 226 226 221 222 219 223 221 235 232 225 221 225 229
273 215 262 282 286 315 52 3 35 12 332 1 356 305 258 101 348 322 316 321 324 319 313 310 301 285 270 265 241 238 235 238 234 231 232 231 228 226 224 225 224 226 228 225 211 221 227 232 236
337 324 287 256 290 43 58 16 35 353 320 332 297 256 296 312 324 335 315 318 332 320 317 309 296 289 286 270 255 242 241 237 236 235 233 236 234 231 229 227 226 230 227 216 212 221 233 227 236
6 291 268 346 23 8 17 2 334 326 289 288 273 274 286 309 312 318 326 327 317 324 316 310 303 288 282 281 271 254 246 239 240 237 235 232 232 232 230 228 227 226 222 215 218 229 228 227 232
343 279 31 1 6 348 339 326 321 316 302 292 297 310 310 314 326 330 330 329 325 324 316 310 302 303 284 278 280 270 255 243 241 242 236 234 234 233 230 227 225 224 216 216 221 227 224 223 230
4 329 11 16 15 348 318 309 317 313 274 287 325 319 317 316 325 323 326 325 318 307 305 309 314 313 303 282 275 274 270 256 241 244 243 238 234 233 232 230 226 218 214 211 218 220 219 224 222
331 52 346 326 330 324 309 303 292 279 273 285 301 306 308 313 317 321 327 318 323 319 309 305 299 294 299 296 277 271 268 264 255 246 238 242 236 234 228 228 222 216 213 212 216 216 218 223 221
289 5 316 298 284 295 293 285 283 288 290 285 301 313 314 311 312 318 327 326 316 313 305 300 293 287 288 285 285 271 265 261 255 253 242 238 240 238 232 226 221 218 216 215 215 218 219 221 219
330 299 284 267 264 286 309 300 312 268 285 298 298 308 310 309 311 327 329 323 321 318 319 317 310 294 281 285 281 277 266 259 257 250 250 244 238 239 242 229 224 223 222 219 219 220 219 221 222
297 298 286 204 186 279 347 285 191 258 285 267 282 291 309 305 317 324 319 314 310 313 314 315 309 304 285 266 268 271 268 263 256 253 247 246 247 245 247 228 228 227 225 224 219 220 222 220 220
278 159 355 143 192 166 110 279 299 318 308 289 296 307 309 311 310 310 310 309 310 308 307 303 301 297 293 281 263 261 264 262 260 256 251 248 249 255 255 257 240 220 229 222 218 214 217 221 219
60 268 297 316 223 243 207 274 263 295 289 311 308 321 312 300 304 310 312 312 307 301 300 297 295 293 292 287 277 265 257 259 260 259 254 251 252 255 259 259 241 244 238 218 213 210 215 218 222
306 309 315 303 305 300 290 271 280 303 327 318 27 288 299 313 313 315 314 308 305 309 309 303 294 289 287 283 279 267 259 252 257 259 257 255 253 253 257 257 260 244 245 208 203 208 209 219 224
298 292 288 287 306 309 278 291 288 267 161 191 231 326 319 315 318 314 310 308 306 312 309 308 305 299 294 287 286 276 268 263 253 261 261 257 253 249 251 257 253 255 233 228 215 206 208 215 221
293 285 283 283 323 322 293 291 279 260 190 171 314 302 323 323 319 319 316 313 309 308 308 299 293 287 274 270 261 275 267 252 263 253 264 262 258 250 244 248 251 247 231 229 211 217 205 208 214
288 260 322 302 333 274 297 283 158 155 162 210 256 317 324 325 326 322 320 318 316 313 314 312 303 301 296 290 272 260 260 244 241 240 244 254 264 257 246 245 239 238 252 242 237 229 228 216 199
287 1 325 315 29 304 49 281 308 135 191 187 320 327 325 328 325 322 322 321 321 317 315 310 304 303 295 291 282 260 262 244 243 242 245 254 257 257 246 242 242 237 242 246 252 222 213 228 197
248 321 291 290 91 345 182 77 257 149 210 348 335 328 326 333 331 329 326 324 321 319 315 315 308 308 296 286 278 254 256 235 240 244 242 250 247 252 250 250 241 236 239 244 248 242 226 219 218
317 304 306 98 155 257 192 79 265 225 296 326 335 327 335 336 333 326 326 326 323 325 323 318 316 313 303 298 283 262 243 225 242 237 236 246 253 250 247 246 243 232 225 227 237 233 227 214 228
20 359 334 347 253 242 218 306 251 151 32 2 333 330 338 334 332 329 329 330 326 323 322 321 319 317 317 304 287 258 235 229 230 233 244 237 245 252 254 243 255 232 234 224 222 226 216 213 217
38 65 127 279 309 298 227 237 261 141 38 355 329 330 332 331 333 329 328 328 328 328 326 324 323 319 325 306 316 201 212 216 222 229 235 247 253 256 257 249 237 249 219 223 218 218 217 217 214
129 256 29 268 237 308 239 275 63 91 349 348 338 337 331 334 332 332 333 332 332 327 326 330 328 326 329 317 302 273 204 201 219 222 222 235 248 259 258 264 249 243 268 217 217 214 220 223 227
145 114 14 265 306 296 290 287 245 306 318 316 320 332 335 336 337 339 339 338 337 333 330 336 338 339 339 329 297 279 262 244 242 244 245 246 256 262 253 273 250 243 252 232 219 218 226 223 220
141 232 248 131 204 274 304 264 200 199 234 274 299 343 342 345 344 346 346 346 343 339 342 338 341 345 346 335 307 278 266 264 256 252 257 258 252 256 255 267 240 240 244 237 203 219 228 230 237
97 233 163 138 270 237 253 269 165 183 211 247 349 360 348 354 352 353 354 353 351 349 350 346 346 344 337 335 320 300 277 268 262 255 251 252 261 245 251 261 269 234 235 230 207 219 226 234 236